#timestamp,LO_Frequency,Hit,StdDev 
1607767215.1,286047002.4,N
1607767216.0,286047002.4,N
1607767235.8,286047002.3,N
1607767255.7,286047001.6,N
1607767275.5,286047003.2,N
1607767295.3,286047002.1,N
1607767315.2,286047002.1,N
1607767335.0,286047002.8,N
1607767335.9,286047002.8,N
1607767355.8,286047001.9,N
1607767375.6,286047001.7,N
1607767395.4,286047003.8,Y
1607767415.3,286046998.4,P
1607767435.1,286047000.0,N
1607767455.8,286047002.1,N
1607767475.7,286046998.7,N
1607767495.5,286047002.7,N
1607767515.4,286047000.2,N
1607767535.2,286047001.7,N
1607767555.0,286047000.4,N
1607767555.9,286047000.4,N
1607767575.8,286047000.9,N
1607767595.6,286047001.0,N
1607767615.4,286046998.2,N
1607767635.3,286047002.3,N
1607767655.1,286046999.8,N
1607767675.9,286047000.0,N
1607767695.7,286047000.4,N
1607767715.5,286046999.8,N
1607767735.4,286047002.3,N
1607767755.2,286047000.3,N
1607767775.0,286047001.9,N
1607767775.9,286047001.9,N
1607767795.8,286047000.8,N
1607767815.6,286047002.5,N
1607767835.5,286046998.7,N
1607767855.3,286047002.1,N
1607767875.1,286047002.5,N
1607767895.9,286047001.4,N
1607767915.7,286046998.4,N
1607767935.5,286047000.6,N
1607767955.4,286046999.8,N
1607767975.2,286047001.0,N
1607767995.1,286046999.4,N
1607767996.0,286046999.4,N
1607768015.8,286046998.9,N
1607768035.6,286046999.0,N
1607768055.5,286047000.9,N
1607768075.3,286047000.8,N
1607768095.1,286047000.6,N
1607768115.9,286047002.7,N
1607768135.7,286047001.5,N
1607768155.6,286047000.4,N
1607768175.4,286046998.2,N
1607768195.2,286047000.7,N
1607768215.1,286047000.8,N
1607768216.0,286047000.8,N
1607768235.8,286047000.4,N
1607768255.6,286047002.8,N
1607768275.5,286046999.2,N
1607768295.3,286046997.1,N
1607768315.2,286046996.1,N
1607768335.9,286046994.2,Y
1607768355.7,286046993.4,P
1607768375.6,286046991.9,N
1607768395.4,286046994.4,N
1607768415.3,286046993.7,N
1607768435.1,286046995.0,N
1607768436.0,286046995.0,N
1607768455.8,286046997.4,N
1607768475.7,286046998.0,N
1607768495.5,286046997.5,N
1607768515.3,286046995.9,N
1607768535.2,286046994.9,N
1607768555.0,286046996.6,N
1607768555.9,286046996.6,N
1607768575.8,286046999.6,N
1607768595.6,286047000.2,N
1607768615.4,286046999.2,N
1607768635.3,286046999.4,N
1607768655.1,286046997.8,N
1607768675.8,286046997.2,N
1607768695.7,286046999.6,N
1607768715.5,286046998.7,N
1607768735.4,286047001.2,N
1607768755.2,286046996.5,N
1607768775.0,286046997.0,N
1607768775.9,286046997.0,N
1607768795.8,286046997.5,N
1607768815.6,286046995.0,N
1607768835.4,286046995.5,N
1607768855.3,286046993.3,Y
1607768875.1,286046996.6,P
1607768895.9,286047000.8,P
1607768915.7,286047001.2,N
1607768935.5,286046998.1,N
1607768955.4,286047000.6,N
1607768975.2,286047002.6,N
1607768995.0,286047000.7,N
1607768995.9,286047000.7,N
1607769015.8,286046998.8,N
1607769035.6,286047000.8,N
1607769055.5,286047001.2,N
1607769075.3,286047000.7,N
1607769095.1,286046999.4,N
1607769115.9,286046998.5,N
1607769135.7,286046998.3,N
1607769155.6,286046998.9,N
1607769175.4,286046999.0,N
1607769195.2,286047001.0,N
1607769215.1,286047000.6,N
1607769216.0,286047000.6,N
1607769235.8,286047002.7,N
1607769255.6,286047002.3,N
1607769275.5,286047000.3,N
1607769295.3,286046998.9,N
1607769315.2,286046999.0,N
1607769335.9,286046998.5,N
1607769355.7,286047002.0,N
1607769375.6,286047000.3,N
1607769395.4,286046999.7,N
1607769415.3,286047001.0,N
1607769435.1,286046999.3,N
1607769436.0,286046999.3,N
1607769455.8,286047000.1,N
1607769475.7,286047001.6,N
1607769495.5,286047002.3,N
1607769515.3,286046999.7,N
1607769535.2,286047002.5,N
1607769555.0,286046999.9,N
1607769555.9,286046999.9,N
1607769575.8,286046998.3,N
1607769595.6,286047000.5,N
1607769615.4,286047000.6,N
1607769635.3,286047000.0,N
1607769655.1,286046998.6,N
1607769675.9,286046998.9,N
1607769695.7,286046999.5,N
1607769715.5,286046999.1,N
1607769735.4,286046996.7,N
1607769755.2,286047001.1,N
1607769775.0,286047001.2,N
1607769776.0,286047001.2,N
1607769795.8,286046998.4,N
1607769815.6,286046999.2,N
1607769835.5,286046998.3,N
1607769855.3,286046999.5,N
1607769875.1,286046996.5,N
1607769895.9,286046997.3,N
1607769915.7,286046998.2,N
1607769935.6,286046999.1,N
1607769955.4,286046999.3,N
1607769975.2,286046999.2,N
1607769995.1,286046998.5,N
1607769996.0,286046998.5,N
1607770015.8,286047001.1,N
1607770035.6,286046999.0,N
1607770055.5,286046998.9,N
1607770075.3,286047001.1,N
1607770095.2,286047000.3,N
1607770115.9,286047001.0,N
1607770135.7,286047000.8,N
1607770155.6,286046996.9,N
1607770175.4,286046998.5,N
1607770195.2,286046999.4,N
1607770215.1,286046998.5,N
1607770216.0,286046998.5,N
1607770235.8,286047000.2,N
1607770255.7,286047002.7,N
1607770275.5,286047000.5,N
1607770295.3,286046999.0,N
1607770315.2,286046998.1,N
1607770335.0,286046999.6,N
1607770335.9,286046999.6,N
1607770355.7,286046996.9,N
1607770375.6,286046996.8,N
1607770395.4,286046999.0,N
1607770415.3,286046999.3,N
1607770435.1,286046999.3,N
1607770436.0,286046999.3,N
1607770455.8,286046999.4,N
1607770475.7,286046999.5,N
1607770495.5,286046998.8,N
1607770515.4,286046999.3,N
1607770535.2,286047000.5,N
1607770555.0,286047000.0,N
1607770555.9,286047000.0,N
1607770575.8,286046999.9,N
1607770595.6,286047001.0,N
1607770615.4,286047000.8,N
1607770635.3,286047000.4,N
1607770655.1,286047000.7,N
1607770675.9,286047000.4,N
1607770695.7,286047000.8,N
1607770715.5,286046998.7,N
1607770735.4,286046999.4,N
1607770755.2,286046997.2,N
1607770775.0,286046996.9,N
1607770775.9,286046996.9,N
1607770795.8,286046997.9,N
